カタログに戻る

STARLINK-33705

運用中通信VLEO
NORAD 63651·PAYLOAD·🇺🇸 United States

打ち上げ Apr 25, 2025 から Cape Canaveral Space Force Station

Loading…

次のパス (今後24時間)

TLE

最新Source: CelesTrak SupGP

元期: Sep 15, 2026, 03:39 UTC

1 63651C 25083T   26258.15256944  .00028497  00000+0  10319-2 0  2581
2 63651  43.0018  15.1226 0001824 270.0127  96.6055 15.27572965    11

AllMySatでSTARLINK-33705をリアルタイム追跡

Download on the App Store